Weather History for Poplar Bluff, MO

Change the Weather History Date:

Saturday, June 15, 2013

  Actual Average Record
Temperature  
Mean Temperature 76 °F -  
Max Temperature 89 °F 88 °F 103 °F (1944)
Min Temperature 64 °F 65 °F 44 °F (1933)
Cooling Degree Days 11    
Growing Degree Days 26 (Base 50)    
Moisture  
Dew Point 66 °F    
Average Humidity 70    
Maximum Humidity 91    
Minimum Humidity 43    
Precipitation  
Precipitation 0.00 in - - ()
Sea Level Pressure  
Sea Level Pressure 30.00 in    
Wind  
Wind Speed 2 mph (SW)    
Max Wind Speed 15 mph    
Max Gust Speed -    
Visibility 9 miles    
Events      
Averages and records for this station are not official NWS values.
T = Trace of Precipitation, MM = Missing Value Source: NWS Daily Summary

Daily Weather History Graph

Daily Weather History Graph

Search for Another Location

Airport:

Trip Planner

Search our weather history database for the weather conditions in past years. The results will help you decide how hot, cold, wet, or windy it might be!

Date:

Astronomy

Jun. 15, 2013 Rise Set
Actual Time 5:41 AM CDT 8:22 PM CDT
Civil Twilight 5:11 AM CDT 8:52 PM CDT
Nautical Twilight 4:32 AM CDT 9:30 PM CDT
Astronomical Twilight 3:50 AM CDT 10:13 PM CDT
Moon 12:07 PM CDT (6/15) 12:05 AM CDT (6/15)
Length of Visible Light 15h 41m
Length of Day
14h 40m
Waxing Crescent, 40% of the Moon is Illuminated
Jun 15
Waxing Crescent
Jun 16
First Quarter
Jun 23
Full
Jun 29
Last Quarter
Jul 8
New

Hourly Weather History & Observations

Time (CDT) Temp. Heat Index Dew Point Humidity Pressure Visibility Wind Dir Wind Speed Gust Speed Precip Events Conditions
12:53 AM 69.1 °F - 64.0 °F 84% 30.01 in 10.0 mi Calm Calm - N/A   Clear
1:53 AM 68.0 °F - 63.0 °F 84% 30.01 in 10.0 mi Calm Calm - N/A   Clear
2:53 AM 66.9 °F - 63.0 °F 87% 30.01 in 9.0 mi Calm Calm - N/A   Clear
3:53 AM 66.0 °F - 63.0 °F 90% 30.01 in 7.0 mi Calm Calm - N/A   Clear
4:53 AM 64.9 °F - 62.1 °F 90% 30.01 in 9.0 mi Calm Calm - N/A   Clear
5:53 AM 64.9 °F - 62.1 °F 90% 30.03 in 7.0 mi Calm Calm - N/A   Clear
6:53 AM 66.9 °F - 63.0 °F 87% 30.04 in 7.0 mi Calm Calm - N/A   Clear
7:53 AM 71.1 °F - 64.9 °F 81% 30.06 in 8.0 mi Calm Calm - N/A   Clear
8:53 AM 75.0 °F - 64.9 °F 71% 30.07 in 8.0 mi Calm Calm - N/A   Clear
9:53 AM 78.1 °F - 64.0 °F 62% 30.04 in 10.0 mi South 5.8 mph - N/A   Clear
10:53 AM 80.1 °F 81.5 °F 63.0 °F 56% 30.04 in 10.0 mi Variable 4.6 mph - N/A   Clear
11:53 AM 82.9 °F 84.4 °F 64.0 °F 53% 30.04 in 10.0 mi SW 9.2 mph - N/A   Clear
12:53 PM 86.0 °F 86.8 °F 63.0 °F 46% 30.01 in 10.0 mi SW 5.8 mph - N/A   Clear
1:53 PM 87.1 °F 87.8 °F 63.0 °F 44% 30.00 in 10.0 mi SW 8.1 mph - N/A   Clear
2:53 PM 88.0 °F 89.3 °F 64.0 °F 45% 29.98 in 10.0 mi SSW 15.0 mph - N/A   Clear
3:53 PM 88.0 °F 88.7 °F 63.0 °F 43% 29.96 in 10.0 mi South 5.8 mph - N/A   Clear
4:53 PM 88.0 °F 89.6 °F 64.9 °F 46% 29.95 in 10.0 mi WSW 3.5 mph - N/A   Clear
5:53 PM 84.9 °F 87.1 °F 66.0 °F 53% 29.97 in 10.0 mi WNW 3.5 mph - N/A   Clear
6:53 PM 82.9 °F 86.5 °F 69.1 °F 63% 29.96 in 10.0 mi Calm Calm - N/A   Mostly Cloudy
7:13 PM 84.2 °F 87.3 °F 68.0 °F 58% 29.97 in 10.0 mi Calm Calm - N/A   Mostly Cloudy
7:21 PM 80.6 °F 83.9 °F 69.8 °F 70% 29.97 in 10.0 mi WNW 3.5 mph - N/A   Partly Cloudy
7:53 PM 82.0 °F 85.5 °F 69.1 °F 65% 29.96 in 9.0 mi Calm Calm - N/A   Clear
8:53 PM 78.1 °F - 71.1 °F 79% 29.96 in 7.0 mi Calm Calm - N/A   Clear
9:53 PM 77.0 °F - 71.1 °F 82% 29.99 in 10.0 mi Calm Calm - N/A   Clear
10:53 PM 75.0 °F - 71.1 °F 87% 30.00 in 9.0 mi Calm Calm - N/A   Clear
11:53 PM 73.9 °F - 71.1 °F 91% 29.99 in 8.0 mi Calm Calm - N/A   Clear